Regional Weather Roundup
Issued by NWS

Home | Current Version | Previous Version | Graphics & Text | Print | Product List | Glossary On
Versions: 1 2 3 4 5 6 7 8 9 10 11 12 13 14 15 16 17 18 19 20 21 22 23 24 25 26 27 28 29 30 31 32 33 34 35 36 37 38 39 40 41 42 43 44 45 46 47 48 49 50
692
ASUS43 KIND 072009
RWRIN

WEATHER ROUNDUP FOR INDIANA
NATIONAL WEATHER SERVICE INDIANAPOLIS IN
300 PM EST SUN FEB 07 2016

NOTE: "FAIR" INDICATES FEW OR NO CLOUDS BELOW 12,000 FEET WITH NO
SIGNIFICANT WEATHER AND/OR OBSTRUCTIONS TO VISIBILITY.

* - STATION DOES NOT REPORT WEATHER SUCH AS PRECIPITATION OR FOG.

+ - STATION NOT QUALITY CONTROLLED BY THE NATIONAL WEATHER SERVICE.
    USE DATA WITH CAUTION...ESPECIALLY DEWPOINT AND RELATIVE
    HUMIDITY OBSERVATIONS.

INZ001>003-010>013-019-020-072100-
NORTHWEST INDIANA

CITY           SKY/WX    TMP DP  RH WIND       PRES   REMARKS
GARY /AIRPORT/ PTSUNNY   46  28  49 SW17G35   29.75S
LA PORTE +     MOSUNNY   47  33  59 SW16G28   29.74F
MICHIGAN CITY+ PTSUNNY   45  32  61 SW15G25   29.74S
MONTICELLO +   SUNNY     48  27  44 SW22G29   29.79S
RENSSELAER +   PTSUNNY   46  30  53 SW22      29.78F
VALPARAISO     PTSUNNY   46  32  58 SW22G29   29.75F

$$

LMZ046-743>745-072100-
SOUTHERN LAKE MICHIGAN

STATION/POSITION TIME  TEMP    WIND        PRES    WAVE
                       AIR SEA DIR/SP/G            HT
                 (UTC) (F)     (DEG/KT/KT) (MB)    (FT)
BURNS HARBOR     2000   45     230/ 15     1007.8S
MICHIGAN CITY    1900   44     180/ 23/ 26   N/A

$$

INZ004-005-014>016-021>024-072100-
NORTH CENTRAL INDIANA

CITY           SKY/WX    TMP DP  RH WIND       PRES   REMARKS
ELKHART        MOSUNNY   46  28  49 SW15      29.75F
GOSHEN         CLOUDY    46  31  55 S22       29.74F
LOGANSPORT +   SUNNY     48  28  46 SW15      29.79F
PERU/GRISSOM   MOSUNNY   51  29  44 SW23G31   29.76F
ROCHESTER +    SUNNY     50  23  34 SW14G21   29.77F
SOUTH BEND     PTSUNNY   44  29  55 SW18G28   29.74F
WARSAW +       MOSUNNY   46  30  53 SW10G21   29.76F

$$

INZ006>009-017-018-025>027-072100-
NORTHEAST INDIANA

CITY           SKY/WX    TMP DP  RH WIND       PRES   REMARKS
ANGOLA *+      SUNNY     45  32  61 SW15      29.75F
AUBURN +       CLOUDY    46  28  49 S9G17     29.78F
FORT WAYNE     CLOUDY    47  29  49 SW18G26   29.79F
HUNTINGTON +   CLOUDY    48  22  36 SW12G22   29.78F

$$

INZ028-029-035-036-043>045-051>053-072100-
WEST CENTRAL INDIANA

CITY           SKY/WX    TMP DP  RH WIND       PRES   REMARKS
GREENCASTLE +  MOSUNNY   52  19  28 SW13G24   29.83F
LAFAYETTE      SUNNY     50  29  44 SW20G31   29.79F
TERRE HAUTE    SUNNY     54  30  40 SW20G29   29.83F

$$

INZ030>032-037>040-046>048-054>057-064-065-072100-
CENTRAL INDIANA

CITY           SKY/WX    TMP DP  RH WIND       PRES   REMARKS
FISHERS *+     MOSUNNY   50  32  50 SW23G30   29.82F
FRANKFORT +    SUNNY     50  20  30 S18G26    29.81F
GREENWOOD *+   MOSUNNY   54  32  43 SW17G26   29.85
INDIANAPOLIS   PTSUNNY   52  24  33 SW23G32   29.82F
-EAGLE CREEK   CLOUDY    52  28  39 SW13G23   29.82F
KOKOMO *+        N/A     52  28  40 SW18G24   29.79F
MARION +       CLOUDY    48  17  28 SW17G26   29.80F
MT COMFORT *+  PTSUNNY   52  30  43 SW18G29   29.84F
SHELBYVILLE    MOSUNNY   52  30  43 SW22G32   29.85F
ZIONSVILLE +   CLOUDY    49  29  45 S18G24    29.81F

$$

INZ033-034-041-042-049-050-058-059-072100-
EAST CENTRAL INDIANA

CITY           SKY/WX    TMP DP  RH WIND       PRES   REMARKS
MUNCIE         MOSUNNY   52  29  41 SW16G32   29.81F

$$

INZ060-061-067>069-081>083-085>088-072100-
SOUTHWEST INDIANA

CITY           SKY/WX    TMP DP  RH WIND       PRES   REMARKS
EVANSVILLE     SUNNY     57  25  29 SW24G32   29.93F
HUNTINGBURG *+ SUNNY     55  30  38 SW20G25   29.93F
WASHINGTON +   SUNNY     53  29  40 SW21G26   29.89F

$$

INZ062-063-066-070>080-084-089>092-072100-
SOUTH CENTRAL AND SOUTHEAST INDIANA

CITY           SKY/WX    TMP DP  RH WIND       PRES   REMARKS
BEDFORD +      SUNNY     54  30  40 S17G26    29.89F
BLOOMINGTON    SUNNY     54  28  36 SW23G32   29.86F
MADISON *+     CLOUDY    52  19  28 SW17G23   29.94F
NORTH VERNON + CLOUDY    54  25  32 SW14      29.91F
SEYMOUR +      CLOUDY    55  30  38 SW18G30   29.90F

$$





USA.gov is the U.S. government's official web portal to all federal, state and local government web resources and services.